Tracking 30308 objects as of 19-Apr-2025
HD Live streaming from Space Station
objects crossing your sky now

SL-16 R/B

Track SL-16 R/B now!
10-day predictions
SL-16 R/B is classified as:


NORAD ID: 25861
Int'l Code: 1999-039B
Perigee: 623.0 km
Apogee: 642.5 km
Inclination: 98.0 °
Period: 97.2 minutes
Semi major axis: 7003 km
RCS: 13.5291 m2 (large)
Launch date: July 17, 1999
Source: Commonwealth of Independent States (former USSR) (CIS)
Launch site: TYURATAM MISSILE AND SPACE COMPLEX (TTMTR)

Note: This is a ROCKET BODY
Your satellite tracking list
Your tracking list is empty




NASA's NSSDC Master Catalog

Two Line Element Set (TLE):
1 25861U 99039B   25108.75203896  .00001068  00000-0  14405-3 0  9990
2 25861  98.0416 162.4509 0013943 227.1047 132.8996 14.81185944388880
Source of the keplerian elements: AFSPC